Location: Unspecified
(0.0000°N, 0.0000°E)
Time: 12:42:32
(UTC+00:00)

Hubble Space Telescope - Pass Details

Date: 02 December 2021
Orbit: 534 x 538 km, 28.5° (Epoch: 07 December)

Event Time Altitude Azimuth Distance (km) Brightness Sun altitude
Rises 19:05:05 0° 206° (SSW) 2,675 5.1 -17.4°
Reaches altitude 10° 19:09:23 10° 163° (SSE) 1,781 3.5 -18.4°
Maximum altitude 19:10:05 10° 154° (SSE) 1,758 3.4 -18.6°
Drops below altitude 10° 19:10:47 10° 144° (SE) 1,780 3.3 -18.7°
Enters shadow 19:11:08 10° 139° (SE) 1,808 3.3 -18.8°
